ONEWEB-0687, 61595

Orbit data source: Space-Track

ONEWEB-0687, 61595 is a payload satellite owned by Eut. One Web (UK) in LEO that was launched on Sun, 20 Oct 2024 UTC via an FALCON 9 launch vehicle from the Air Force Western Test Range (AFWTR). Payload-class satellites include a variety of spacecraft equipped with specific instruments for various scientific and technological missions. These include communications satellites like Starlink; space stations such as the ISS; scientific satellites like the Hubble; Earth observation satellites from companies like Planet Labs, Umbra, and HawkEye 360; GPS; miniature CubeSats for education and research; and military/defense satellites.

Loading next visibility...
Identifier
61595, 2024-188B
Orbit
LEO
Country
Flag of UKUK
Related business
Manufacturer
One Web
Mission
Operational Commercial Communications
Bus & Motor
ARROW, Unknown motor
Mass
148 kg wet, ~140 kg dry
Launch date (UTC)
2024-10-20 (11 months ago)
Launch vehicle
FALCON 9
Launch site
Air Force Western Test Range (AFWTR)
Object type
Payload
Rocket body
Debris
Shape & HBR
Trap Box + 2 Pan, 2.5 m
Radar Cross Section
2.032 m², Large (>1 m²)

Expand to show TLE details & history
Last TLE update: 1 day ago

TLE from 1 day ago
0 ONEWEB-0687
1 61595U 24188B   25260.92366661  .00000012  00000-0 -11373-5 0  9997
2 61595  87.9040  60.0631 0002344  95.9547 264.1852 13.17646758 50049
Epoch: 2025-09-17T22:10Z
TLE epoch observation values (Epoch: 2025-09-17T22:10:04.795Z)
Latitude
0.00003°
Longitude
90.45048°
Altitude
1,196.801 km
Speed
7.255 km/s
True Right ascension
04h 00m 15s
True Declination
0° 00' 00"
Sunlit
Object was in daylight at epoch
Visualization orbit readout
Latitude
Unknown
Longitude
Unknown
Altitude
Unknown
Speed
Unknown
Apparent Right ascension
Unknown
Apparent Declination
Unknown
Sunlit
N/A
Visualization observer readout
Local Sidereal Time
21:18:06
Azimuth
Unknown
Elevation
Unknown
Doppler factor
Unknown
Orbital elements
Apogee altitude
1,192.605 km
Perigee altitude
1,189.057 km
Semi-major axis
7,568.968 km
Eccentricity
0.00023
Inclination
87.904°
RAAN
60.0631°
Arg. of periapsis
95.9547°
True anomaly
264.15848°
Mean anomaly
264.1852°
Eccentric anomaly
264.17184°
Mean motion
3.29601 °/min
Orbital period
109.22 mins
BSTAR
-0.0000011373
Loading maneuver chart data...
Computing Atmospheric mass density...
Loading historical data...
Loading historical data...
Loading historical data...
Loading historical data...
Loading historical data...
Loading historical data...
Loading historical data...

Documentation

Showing up to 5 results
|